リニア-ニート彗星

355P/LINEAR-NEAT (2017)

English version
Home page
Updated on February 13, 2018

---------------------------------------------------------------------

・ プロフィール

符号 355P/2017 M2
検出日 2017年6月21日
検出光度 19.6等
検出者 Erwin Schwab (Egelsbach, Germany), Pablo Ruiz (European Space Agency's Optical Ground Station, Tenerife)

・ 写真集

・ 軌道要素

Epoch 2017 Oct. 14.0 TT = JDT 2458040.5
T 2017 Oct. 12.67997 TT                                 MPCW
q   1.7159745            (2000.0)            P               Q
n   0.15204336     Peri.  336.33720     +0.87879202     -0.45312264
a   3.4766242      Node    51.46124     +0.46267004     +0.73220322
e   0.5064251      Incl.   11.03231     +0.11688037     +0.50848630
P   6.48
From 739 observations 2004 July 16-2018 Jan. 23, mean residual 0".6.

・ 星図

・ 光度変化

        m1 = 10.0 + 5 logΔ + 25.0 log r(t - 25)

---------------------------------------------------------------------

軌道要素はM.P.E.C. 2018-B155に掲載されたものです。
星図はステラナビゲータ Ver.10 (アストロアーツ) で作成したものです。
光度グラフはComet for Windowsで作成したものです。

---------------------------------------------------------------------

Copyright(C) Seiichi Yoshida (comet@aerith.net). All rights reserved.